EUTELSAT 7B

Last updated on Thu Jul 03 2025 00:02:46 GMT+0000 (Coordinated Universal Time)

1 39163U 13022A 25183.42266964 .00000055 00000+0 00000+0 0 9996 2 39163 0.0683 341.7871 0003927 57.9408 40.1434 1.00271120 44442
UTC large
Height (km)
Speed (km/s)
/
Latitude / Longitude
Inclination (degrees)
Orbital Period (minutes)
Azimuth
Elevation
Range (km)
Doppler Factor

Next 0 passes for location: London (51.5072 / 0.1276)

Sorry there are no passes over London.